Lapse_Rate
7.1 6.5 6.5 6.5 6.5 6.5 6.5 6.5 6.5 6.5 6.5 6.5 6.5 6.5 6.5 7.0 7.3 7.1 7.3 7.6 7.8 7.7 8.4 8.1 6.7 6.9 6.6 6.2 5.9 5.9 6.2 6.4 6.7 5.9 6.9 6.5 5.9 4.8 5.0 4.3 5.9 5.8 5.7 6.1
6.5 6.5 6.5 6.5 6.5 6.5 6.5 6.5 6.5 6.5 6.5 6.5 6.5 6.5 6.5 6.6 6.9 7.3 7.3 7.5 7.7 8.0 8.2 7.4 6.9 6.9 6.6 5.9 5.5 5.5 5.7 6.1 6.0 5.8 4.2 4.7 4.3 5.5 5.3 4.4 4.7 5.8 6.0 6.0
6.5 6.5 6.6 6.5 6.5 6.5 6.5 6.5 6.5 6.5 6.5 6.5 6.5 6.5 6.5 6.5 7.0 7.3 7.6 7.8 7.9 7.9 8.0 8.1 7.0 6.5 6.6 5.9 5.3 4.9 5.1 5.4 5.6 5.4 5.7 4.4 4.8 4.3 5.4 6.6 6.8 6.7 6.0 6.1
6.5 6.6 6.5 6.5 6.5 6.5 6.6 6.5 6.5 6.5 6.5 6.5 6.5 6.5 6.5 6.5 6.5 6.5 7.2 7.5 7.8 7.8 8.2 8.3 8.2 6.4 6.4 5.6 5.5 5.3 5.0 4.9 5.1 4.9 5.8 5.8 7.1 8.0 5.3 7.5 7.6 7.3 6.0 6.1
6.5 6.5 6.5 6.5 6.5 6.5 6.5 6.5 6.5 6.5 6.5 6.5 6.5 6.5 6.5 6.5 6.5 6.5 6.8 7.4 7.8 8.1 8.0 8.1 8.0 6.0 5.7 5.7 5.2 5.3 4.8 4.6 5.2 4.5 5.3 5.7 6.1 7.2 7.3 7.5 6.8 6.5 6.0 6.0
6.5 7.0 6.5 6.5 6.5 6.5 6.5 6.5 6.5 6.6 6.5 6.5 6.5 6.5 6.5 6.5 6.5 6.5 6.8 7.3 7.6 7.9 8.1 8.2 7.3 7.0 6.1 5.5 5.2 5.3 4.4 4.4 4.7 4.5 4.5 4.8 5.5 5.9 6.5 6.6 7.3 7.6 7.7 7.3
6.5 6.5 6.5 6.8 6.5 6.5 6.5 6.5 6.5 6.5 6.5 6.5 6.5 6.5 6.5 6.5 6.5 6.5 6.6 7.1 7.6 7.9 8.1 8.2 8.2 7.3 5.3 5.1 4.6 4.8 4.3 4.3 4.8 4.8 5.1 4.8 5.1 5.4 5.6 6.0 7.4 7.5 7.8 7.4
6.5 6.5 6.5 6.5 6.5 6.5 6.5 6.5 6.5 6.5 6.5 6.5 6.5 6.5 6.5 6.4 6.9 7.2 7.3 7.5 7.7 7.9 8.3 8.1 7.9 6.1 5.0 4.6 4.2 4.3 3.8 4.2 4.4 4.8 4.7 4.8 5.0 6.2 6.4 6.4 7.3 7.3 7.5 7.7
6.5 6.5 6.5 6.5 6.5 6.5 6.5 6.5 6.5 6.5 6.4 6.5 6.5 6.5 6.5 6.5 6.5 6.7 7.0 7.3 7.4 7.7 8.0 8.1 8.1 6.0 4.5 4.5 4.2 3.9 3.8 3.8 4.2 4.8 4.7 4.6 4.9 5.3 6.2 5.8 6.0 7.0 6.7 7.3
6.5 6.5 6.5 6.5 6.6 6.6 6.5 6.5 6.5 6.5 6.5 6.5 6.5 6.5 6.5 6.5 6.5 6.5 6.5 6.9 7.4 7.7 7.9 8.0 7.6 6.2 4.9 4.2 4.0 4.1 4.1 3.6 3.8 4.9 4.9 5.0 5.1 5.1 5.7 5.9 5.8 6.2 6.5 6.0
6.5 6.5 6.5 6.5 6.5 6.5 6.5 6.5 6.5 6.5 6.5 6.5 6.5 6.5 6.5 6.5 6.5 6.5 6.6 7.1 7.5 7.5 7.7 7.8 6.2 6.0 5.1 4.5 5.0 3.8 4.0 2.5 2.8 3.9 4.2 4.8 5.2 5.5 5.5 5.9 5.8 5.9 6.1 5.8
6.5 6.5 6.5 6.5 6.5 6.5 6.5 6.5 6.5 6.6 6.5 6.5 6.5 6.5 6.5 6.5 6.4 6.8 6.9 7.2 7.1 7.3 7.5 6.9 5.8 5.7 5.6 4.4 4.4 4.5 4.3 3.2 2.6 3.9 3.4 4.0 4.8 5.4 6.1 5.7 5.9 5.7 5.7 5.9
6.5 6.5 6.5 6.5 6.5 6.5 6.5 6.6 6.5 6.5 6.5 6.5 6.5 6.5 6.5 6.6 6.6 7.0 6.9 7.0 5.1 5.4 7.5 6.5 5.7 4.8 4.6 4.7 4.8 4.9 4.4 4.1 4.3 3.2 2.6 3.7 4.4 4.4 5.4 5.8 5.7 5.9 5.9 5.9
6.6 6.5 6.5 6.5 6.5 6.5 6.5 6.5 6.5 6.5 6.5 6.5 6.5 6.5 6.5 6.5 6.5 6.7 6.9 7.2 6.0 5.3 7.0 5.4 5.2 5.3 4.8 4.3 4.0 4.5 4.3 4.7 3.8 2.7 2.7 2.8 3.7 4.1 4.5 5.3 5.0 5.4 5.5 5.6
6.5 6.5 6.5 6.4 6.5 6.5 6.5 6.5 6.5 6.5 6.5 6.5 6.5 6.5 6.5 6.5 6.5 6.8 7.1 7.1 5.7 6.5 6.7 5.9 4.8 4.3 4.0 4.4 4.7 4.6 4.8 4.7 4.4 3.3 4.5 3.1 3.7 3.1 3.6 3.2 4.2 5.2 5.5 5.9
6.5 6.5 6.5 6.5 6.5 6.5 6.5 6.5 6.5 6.4 6.5 6.5 6.5 6.5 6.5 6.8 7.0 7.0 7.1 7.1 7.0 7.1 6.9 5.6 4.7 4.1 3.7 3.9 3.9 4.1 4.4 4.4 4.6 4.2 4.7 4.3 3.6 4.1 3.4 2.6 4.2 4.5 5.4 5.3
6.5 6.5 6.5 6.5 6.5 6.5 6.5 6.5 6.5 6.5 6.5 6.5 6.5 6.5 6.5 6.5 6.5 6.8 7.1 6.9 6.9 6.0 6.3 4.2 3.7 3.7 4.1 4.0 3.9 3.8 4.5 5.0 4.8 4.7 5.1 4.5 3.8 5.2 5.0 4.4 4.3 4.4 3.7 3.6
6.5 6.5 6.5 6.5 6.5 6.5 6.5 6.5 6.5 6.5 6.5 6.5 6.5 6.5 6.5 6.7 7.1 7.2 7.3 6.8 4.8 4.9 4.7 4.5 3.9 3.8 4.2 4.5 4.8 5.0 4.8 4.2 4.5 5.3 5.1 5.0 4.7 2.7 2.3 2.6 2.4 1.6 1.3 1.5
6.6 6.5 6.5 6.5 6.5 6.5 6.5 6.5 6.5 6.5 6.5 6.5 6.5 6.5 6.8 7.1 7.2 7.0 4.9 5.0 5.6 5.4 5.1 4.7 4.9 4.7 2.9 3.4 3.9 4.1 5.0 5.2 4.4 2.9 3.2 2.8 2.9 1.9 1.6 0.6 -0.2 -0.2 0.1 1.0
6.5 6.5 6.5 6.5 6.5 6.5 6.5 6.5 7.0 6.6 6.5 6.6 6.8 6.5 6.7 7.1 6.5 6.5 5.8 6.9 5.5 5.4 4.6 4.2 3.9 3.1 3.2 2.3 2.8 2.4 2.6 3.4 2.4 2.1 2.0 1.6 1.3 0.2 0.1 -0.5 -0.4 -0.8 -0.4 -0.2
6.5 6.5 6.5 6.5 6.5 6.5 6.4 6.7 7.1 6.5 6.5 7.0 7.3 7.2 7.1 6.5 7.0 7.5 7.7 7.9 5.8 6.1 5.1 4.3 3.7 3.3 2.5 1.0 1.0 0.2 -0.5 -0.4 -0.9 -1.3 0.3 0.4 -1.3 -0.8 -1.2 -1.0 -0.7 -0.4 0.1 0.5
6.5 6.5 6.5 6.5 6.5 6.5 7.0 6.7 6.5 6.6 7.2 7.4 7.5 7.5 7.3 7.6 7.6 7.6 7.5 7.8 6.1 5.5 5.2 4.6 3.3 1.5 2.2 2.4 2.5 3.6 2.7 1.1 0.4 -0.4 0.2 1.5 -0.9 -0.1 -0.4 -0.2 -0.2 0.2 1.5 1.6
6.5 6.5 6.5 6.5 6.5 6.7 7.2 7.1 7.5 7.7 7.4 7.5 7.5 7.7 7.7 7.6 7.5 7.8 7.8 7.8 7.3 6.6 5.7 6.9 1.8 1.6 3.2 2.4 2.7 2.2 2.3 -0.2 -0.9 -0.7 -0.4 0.8 -0.6 -0.6 0.8 1.3 1.0 2.3 1.8 1.7
6.5 6.9 6.5 6.5 6.5 6.6 7.2 7.6 7.4 7.7 7.8 7.8 8.0 7.8 7.9 7.7 7.9 7.9 8.0 7.9 8.1 7.0 5.9 8.2 3.0 1.6 1.1 1.6 2.0 0.7 -0.9 -1.1 -2.7 -1.3 0.3 0.8 0.5 0.8 1.6 2.6 3.2 3.3 3.0 2.9
6.6 6.6 6.5 6.5 6.6 7.0 7.2 7.5 7.7 7.8 8.0 7.9 8.0 7.9 7.8 7.8 7.8 8.1 8.1 7.8 8.1 7.3 5.4 5.3 5.6 2.3 0.7 0.9 1.4 1.1 0.4 -0.2 -0.6 0.2 1.2 1.8 2.4 2.9 2.7 3.1 3.1 2.8 2.0 2.1
6.9 6.5 6.5 6.5 6.8 6.8 7.0 7.7 8.0 7.7 7.6 7.8 7.8 7.6 7.7 8.1 7.8 7.6 7.6 6.9 8.0 7.8 4.9 4.5 3.2 2.0 0.8 1.0 1.6 1.4 2.1 1.9 1.7 2.1 2.8 3.6 4.0 4.1 4.1 3.6 3.0 -2.1 -0.8 -2.2
Wind_Speed
4 7 12 10 5 1 1 5 9 6 5 6 11 15 13 10 15 15 15 16 16 19 13 13 14 13 13 12 12 12 12 11 9 6 7 6 5 3 3 6 7 6 6 7
5 15 7 5 4 3 3 7 12 4 2 7 9 15 13 13 17 18 18 18 19 16 15 15 16 15 15 14 14 13 13 12 10 7 4 2 3 3 2 4 6 7 9 9
11 1 11 9 6 6 6 10 11 6 6 7 7 8 6 6 14 16 18 20 19 19 19 17 18 18 16 16 15 14 14 13 12 11 7 3 3 2 3 5 4 6 9 10
6 5 6 7 9 8 16 10 13 11 4 6 2 6 6 3 9 15 19 21 21 21 20 17 18 18 19 18 16 15 14 13 13 13 10 12 9 8 4 5 5 5 10 9
4 6 10 12 14 11 9 4 5 2 2 4 5 5 6 2 8 14 18 22 24 23 22 21 21 21 21 17 17 16 15 14 13 14 12 10 11 7 5 5 6 5 5 9
8 1 3 6 6 15 4 5 2 4 2 5 5 6 8 6 10 10 6 17 22 23 22 22 22 18 16 15 15 15 16 15 15 14 15 14 13 10 7 6 5 5 5 5
5 13 7 6 6 4 6 7 4 5 4 7 2 6 14 13 16 14 15 9 15 20 22 21 20 18 17 18 18 16 17 16 16 16 15 15 15 13 11 10 8 7 6 5
4 3 9 9 15 8 11 11 5 7 7 5 1 6 5 11 11 9 11 9 11 17 19 21 22 20 20 20 20 19 19 17 18 17 16 13 14 11 10 11 8 7 6 6
5 4 3 8 5 11 7 6 1 3 1 4 4 7 11 16 14 7 7 5 10 14 18 20 20 20 19 19 20 21 19 18 18 19 15 15 13 14 11 12 10 9 8 6
5 8 8 10 6 3 7 10 4 2 9 11 5 6 9 11 14 10 6 6 9 12 16 18 18 20 19 19 20 19 19 19 19 18 16 14 15 15 14 11 12 11 10 8
9 7 4 3 6 11 5 4 2 1 3 9 11 8 6 11 13 11 11 7 9 13 16 17 17 18 19 17 17 18 18 15 14 17 16 15 14 15 14 13 13 12 11 10
8 4 7 13 1 2 5 10 9 8 5 2 3 10 5 12 9 9 14 10 8 12 14 15 16 17 18 19 19 19 18 18 17 15 15 15 14 13 14 14 13 12 11 11
7 4 4 4 4 3 6 8 15 9 4 12 11 10 3 6 9 11 11 6 6 6 11 13 14 16 17 18 17 18 18 17 16 15 15 15 15 14 14 13 12 12 12 12
4 3 5 10 6 2 5 6 9 15 9 10 11 15 12 12 9 11 9 6 5 5 10 12 13 15 15 15 15 15 16 16 16 16 15 12 15 13 10 10 10 11 11 13
3 8 4 9 10 8 11 14 9 12 16 10 12 10 10 9 7 8 5 3 4 6 8 11 12 12 13 13 13 14 15 15 16 17 15 14 11 11 11 10 10 11 12 13
2 4 3 5 9 8 11 13 12 13 12 11 8 10 11 6 6 9 6 5 7 9 9 9 9 11 13 14 14 15 15 15 15 15 15 10 10 12 11 7 10 8 11 10
2 4 4 11 7 10 15 12 16 15 11 12 12 13 4 7 8 8 6 7 9 9 10 11 10 11 11 12 13 15 14 14 14 13 13 13 13 13 11 10 9 9 8 6
3 3 3 7 7 16 7 3 8 10 14 13 11 10 7 7 9 12 10 10 11 11 10 10 9 9 8 9 10 9 11 13 11 11 11 13 14 10 8 10 10 7 4 3
11 9 7 9 12 15 15 12 4 3 6 5 6 8 10 10 9 8 3 8 8 8 8 9 8 8 7 6 6 9 10 11 13 14 14 13 13 12 10 9 7 5 5 4
6 8 9 7 12 17 10 17 3 2 12 7 6 8 11 10 7 5 14 10 5 6 8 8 9 8 9 9 10 11 8 6 4 8 10 11 11 11 9 9 7 4 7 6
5 4 13 13 12 9 3 7 2 10 2 9 10 9 9 7 8 17 16 13 5 5 9 8 9 10 11 13 15 14 12 11 10 10 6 7 14 11 10 10 7 6 6 5
11 7 6 5 8 13 5 3 5 6 5 8 9 9 11 12 15 15 16 11 4 9 10 10 10 10 11 13 16 15 15 13 10 12 7 5 10 8 8 10 8 7 4 5
5 6 5 6 4 2 3 6 9 6 7 9 10 11 12 13 15 15 14 10 6 11 11 11 11 10 11 13 14 16 14 14 17 12 7 6 7 8 7 8 8 5 5 6
3 4 4 3 6 3 5 12 6 4 6 10 12 13 12 12 13 15 12 7 7 11 13 12 13 11 10 12 13 11 12 11 18 13 9 7 9 9 7 6 4 5 5 6
4 2 4 5 10 13 10 1 4 9 11 12 12 13 13 13 13 12 10 6 8 11 13 13 13 14 12 13 16 16 14 12 14 14 11 10 8 9 8 6 6 6 5 4
10 11 9 12 14 12 17 16 15 12 12 14 11 14 12 11 12 16 11 5 7 10 11 12 13 16 15 15 16 17 17 16 16 14 11 10 9 9 8 8 6 2 1 6
Wind_Direction
166 203 211 204 185 144 244 279 277 275 259 248 255 272 280 218 210 215 215 208 212 217 209 206 205 203 195 191 186 188 186 186 181 180 187 199 199 200 217 232 226 201 201 201
167 229 199 190 175 207 235 286 282 286 211 223 294 280 273 221 218 213 210 214 216 219 207 205 201 200 201 193 191 187 194 184 190 183 186 175 160 196 211 202 223 215 210 205
215 246 183 181 181 216 246 263 278 293 318 252 285 270 268 226 229 224 222 218 220 219 213 205 202 201 199 197 195 191 194 188 191 196 188 163 142 154 186 208 212 216 206 201
249 199 146 182 223 231 261 262 264 265 293 308 339 297 277 268 239 231 231 222 218 216 216 213 204 202 203 202 195 193 189 192 189 188 197 202 203 203 187 198 206 205 203 199
217 196 197 233 240 199 247 208 238 250 279 281 219 261 280 273 264 247 232 228 223 217 212 208 206 204 204 196 193 194 189 191 192 188 201 205 214 209 211 212 209 205 191 203
254 224 209 233 191 196 117 199 110 76 165 241 229 232 281 264 253 278 251 228 226 217 211 211 209 203 203 196 194 191 191 195 194 195 197 205 212 213 214 226 232 222 213 203
241 238 231 200 223 180 211 225 231 223 213 269 86 217 259 274 268 263 281 292 232 213 209 207 200 193 193 195 193 192 192 197 198 202 203 207 217 218 219 219 224 226 221 218
229 236 198 182 216 218 201 224 227 255 248 276 127 238 250 254 278 276 269 271 239 207 205 200 196 194 191 192 191 192 192 199 197 201 206 208 213 221 222 220 224 231 237 228
209 247 204 206 174 205 168 202 276 210 97 248 265 273 272 266 275 263 284 244 222 209 203 199 194 191 188 188 194 194 193 199 199 202 201 204 209 218 219 216 217 228 231 234
223 267 257 269 160 95 225 143 194 208 255 263 238 271 261 275 283 292 271 261 234 209 203 197 193 192 192 193 194 197 198 199 199 203 206 205 205 212 222 222 219 220 227 224
209 235 223 200 212 216 168 207 77 249 256 273 272 259 220 250 267 285 294 289 268 219 201 196 193 195 193 195 195 196 197 194 193 202 204 207 204 208 216 221 224 220 226 224
188 207 243 234 245 286 246 260 215 248 213 235 300 270 251 245 267 270 278 288 280 238 206 195 192 190 191 194 194 198 201 194 195 197 201 208 208 209 216 223 223 223 223 226
169 210 249 233 155 145 223 209 225 236 248 241 258 268 238 269 261 262 269 291 291 236 205 192 187 191 192 196 197 198 198 201 195 190 196 203 208 206 217 224 228 228 231 230
184 180 252 267 311 9 248 231 224 231 231 232 238 265 276 285 276 286 274 254 256 210 199 193 194 198 199 193 191 195 200 198 192 192 203 200 205 207 208 229 232 230 232 237
225 253 216 261 270 259 262 268 231 220 244 225 248 215 256 262 275 286 318 253 188 204 203 199 195 192 192 192 192 194 195 194 195 195 201 202 193 193 190 208 225 233 231 238
164 222 188 263 275 274 265 266 270 236 232 253 267 253 245 266 269 265 261 251 223 214 205 200 199 189 190 191 191 192 193 191 188 192 204 186 184 199 219 191 220 223 234 237
239 184 206 260 267 293 272 250 250 248 235 235 243 250 296 258 266 288 277 232 235 219 204 190 194 194 188 192 194 198 193 188 190 189 184 176 176 200 208 209 203 205 201 199
212 204 206 264 261 255 264 289 287 268 274 252 259 259 293 292 288 284 268 259 230 220 201 191 184 172 176 193 201 196 186 179 168 177 185 172 170 163 166 163 165 150 140 116
226 234 237 240 242 265 266 279 311 357 304 28 308 320 330 320 295 283 269 257 262 227 195 189 181 163 146 155 164 175 182 178 165 162 180 162 160 151 164 143 118 103 124 93
201 234 234 226 247 255 260 246 119 181 263 13 350 340 336 319 237 223 360 348 259 209 180 161 143 139 124 112 117 107 98 107 129 153 156 140 139 134 131 112 107 122 89 77
193 191 221 229 245 259 282 317 145 220 285 345 346 339 331 309 304 311 315 335 315 191 160 139 138 131 126 123 114 102 94 80 68 52 32 119 113 118 109 103 100 89 88 90
217 221 228 220 234 250 11 169 263 358 321 323 330 330 316 310 305 309 312 309 243 172 152 150 130 127 126 132 120 122 117 123 96 84 53 9 81 98 105 103 91 79 91 69
230 231 235 223 240 129 12 336 308 279 292 312 310 322 316 319 315 317 308 299 214 181 158 152 137 128 125 130 137 139 145 149 120 102 109 219 115 109 116 116 106 114 84 57
216 199 234 245 223 268 295 308 284 278 299 313 310 307 316 316 314 307 306 287 198 180 161 149 137 130 122 127 134 138 142 145 115 129 163 172 150 126 113 107 120 91 75 61
280 203 264 264 288 303 300 358 317 302 299 298 306 305 303 309 315 308 302 273 204 181 165 161 151 140 134 138 139 139 142 137 131 144 158 156 136 134 134 115 96 96 80 53
236 251 257 267 278 273 276 285 290 272 294 301 296 303 300 306 306 322 307 284 208 185 170 159 151 137 136 145 146 147 155 154 150 150 157 157 149 149 135 122 122 263 253 207